Bemidji, MN

10:43 PM CDT on May 25, 2017 (GMT -0500)
Bemidji-Beltrami County

Weather History for KBJI - June, 2013

Change the Weather History Date:

Tuesday, June 25, 2013

  Actual Average Record
Temperature  
Mean Temperature 71 °F -  
Max Temperature 86 °F 76 °F 95 °F (2001)
Min Temperature 56 °F 54 °F 40 °F (1958)
Cooling Degree Days 6    
Growing Degree Days 21 (Base 50)    
Moisture  
Dew Point 64 °F    
Average Humidity 74    
Maximum Humidity 99    
Minimum Humidity 47    
Precipitation  
Precipitation 0.00 in - - ()
Sea Level Pressure  
Sea Level Pressure 29.76 in    
Wind  
Wind Speed 5 mph (SSE)    
Max Wind Speed 16 mph    
Max Gust Speed 20 mph    
Visibility 8 miles    
Events Rain    
Averages and records for this station are not official NWS values.
T = Trace of Precipitation, MM = Missing Value Source: NWS Daily Summary

Daily Weather History Graph

Daily Weather History Graph

Search for Another Location

Airport or City:

Trip Planner

Search our weather history database for the weather conditions in past years. The results will help you decide how hot, cold, wet, or windy it might be!

Date:

Astronomy

Jun. 25, 2013 Rise Set
Actual Time 5:23 AM CDT 9:21 PM CDT
Civil Twilight 4:43 AM CDT 10:01 PM CDT
Nautical Twilight 3:47 AM CDT 10:57 PM CDT
Astronomical Twilight 2:18 AM CDT 12:25 AM CDT
Moon 10:51 PM CDT (6/25) 8:16 AM CDT (6/25)
Length of Visible Light 17h 18m
Length of Day
15h 57m
Waning Gibbous, 92% of the Moon is Illuminated
Jun 25
Waning Gibbous
Jun 29
Last Quarter
Jul 8
New
Jul 15
First Quarter
Jul 22
Full

Hourly Weather History & Observations

Time (CDT) Temp. Heat Index Dew Point Humidity Pressure Visibility Wind Dir Wind Speed Gust Speed Precip Events Conditions
12:12 AM 60.8 °F - 57.7 °F 90% 29.80 in 10.0 mi Calm Calm - N/A   Clear
12:31 AM 63.0 °F - 58.3 °F 85% 29.80 in 10.0 mi Calm Calm - N/A   Clear
12:51 AM 61.3 °F - 58.5 °F 90% 29.80 in 10.0 mi Calm Calm - N/A   Clear
1:11 AM 59.9 °F - 57.6 °F 92% 29.80 in 10.0 mi Calm Calm - N/A   Clear
1:31 AM 59.9 °F - 56.5 °F 88% 29.80 in 10.0 mi Calm Calm - N/A   Clear
1:52 AM 59.4 °F - 57.7 °F 94% 29.80 in 10.0 mi Calm Calm - N/A   Clear
2:11 AM 58.5 °F - 57.6 °F 97% 29.80 in 10.0 mi Calm Calm - N/A   Clear
2:31 AM 61.5 °F - 59.0 °F 91% 29.80 in 10.0 mi Calm Calm - N/A   Clear
2:52 AM 59.9 °F - 56.1 °F 87% 29.80 in 10.0 mi Calm Calm - N/A   Clear
3:11 AM 58.1 °F - 55.2 °F 90% 29.80 in 10.0 mi Calm Calm - N/A   Clear
3:31 AM 56.3 °F - 55.8 °F 98% 29.80 in 3.0 mi Calm Calm - N/A   Clear
3:52 AM 57.7 °F - 55.9 °F 94% 29.80 in 10.0 mi Calm Calm - N/A   Clear
4:11 AM 58.3 °F - 57.7 °F 98% 29.80 in 10.0 mi South 3.5 mph - N/A   Clear
4:31 AM 62.6 °F - 61.2 °F 95% 29.79 in 10.0 mi South 4.6 mph - N/A   Mostly Cloudy
4:52 AM 63.7 °F - 63.5 °F 99% 29.79 in 0.2 mi South 4.6 mph - N/A Rain Light Rain
5:12 AM 63.7 °F - 63.5 °F 99% 29.79 in 0.2 mi South 3.5 mph - N/A Rain Light Rain
5:31 AM 63.0 °F - 62.6 °F 99% 29.79 in 0.2 mi Calm Calm - N/A Rain Light Rain
5:52 AM 63.3 °F - 63.0 °F 99% 29.80 in 0.2 mi SSE 3.5 mph - N/A Rain Light Rain
6:12 AM 64.2 °F - 64.0 °F 99% 29.79 in 0.2 mi SE 3.5 mph - N/A Rain Light Rain
6:31 AM 64.8 °F - 64.6 °F 99% 29.79 in 0.2 mi ESE 3.5 mph - N/A Rain Light Rain
6:51 AM 64.8 °F - 64.6 °F 99% 29.79 in 0.2 mi SE 5.8 mph - N/A Rain Light Rain
7:12 AM 64.6 °F - 64.4 °F 99% 29.79 in 0.2 mi SE 9.2 mph - N/A Rain Rain
7:31 AM 64.8 °F - 64.6 °F 99% 29.79 in 0.2 mi SSE 8.1 mph - N/A Rain Light Rain
7:51 AM 65.1 °F - 64.9 °F 99% 29.79 in 0.8 mi SE 6.9 mph - N/A Rain Rain
8:12 AM 65.7 °F - 65.5 °F 99% 29.79 in 4.0 mi SSE 6.9 mph - N/A   Overcast
8:31 AM 66.0 °F - 65.5 °F 98% 29.79 in 4.0 mi SSE 8.1 mph - N/A   Overcast
8:51 AM 68.0 °F - 65.7 °F 92% 29.79 in 7.0 mi SE 9.2 mph - N/A   Overcast
9:12 AM 69.4 °F - 65.7 °F 88% 29.79 in 7.0 mi SE 8.1 mph - N/A   Mostly Cloudy
9:31 AM 71.1 °F - 65.3 °F 82% 29.79 in 7.0 mi SSE 9.2 mph - N/A   Scattered Clouds
9:51 AM 72.3 °F - 65.3 °F 78% 29.78 in 10.0 mi ESE 6.9 mph - N/A   Clear
10:12 AM 75.6 °F - 65.7 °F 71% 29.78 in 10.0 mi ESE 5.8 mph - N/A   Clear
10:31 AM 77.7 °F - 65.1 °F 65% 29.78 in 10.0 mi SE 9.2 mph - N/A   Clear
10:51 AM 79.2 °F - 64.6 °F 61% 29.79 in 10.0 mi SE 8.1 mph - N/A   Clear
11:12 AM 79.5 °F - 64.4 °F 60% 29.79 in 10.0 mi SSE 11.5 mph 17.3 mph N/A   Clear
11:31 AM 80.1 °F 81.9 °F 65.1 °F 60% 29.78 in 7.0 mi SE 9.2 mph 16.1 mph N/A   Clear
11:51 AM 80.8 °F 82.5 °F 64.8 °F 58% 29.79 in 10.0 mi South 10.4 mph 17.3 mph N/A   Scattered Clouds
12:11 PM 81.0 °F 82.9 °F 65.3 °F 59% 29.79 in 10.0 mi SSW 12.7 mph 18.4 mph N/A   Mostly Cloudy
12:31 PM 82.2 °F 84.0 °F 65.1 °F 56% 29.78 in 10.0 mi South 9.2 mph 17.3 mph N/A   Scattered Clouds
12:52 PM 82.8 °F 84.5 °F 65.3 °F 55% 29.78 in 10.0 mi SSE 16.1 mph 19.6 mph N/A   Mostly Cloudy
1:12 PM 83.1 °F 85.0 °F 65.3 °F 55% 29.78 in 10.0 mi South 10.4 mph 18.4 mph N/A   Scattered Clouds
1:31 PM 83.1 °F 84.8 °F 64.9 °F 54% 29.76 in 10.0 mi South 10.4 mph 16.1 mph N/A   Clear
1:51 PM 84.4 °F 86.1 °F 64.9 °F 52% 29.76 in 10.0 mi SSE 11.5 mph 18.4 mph N/A   Clear
2:12 PM 85.3 °F 86.8 °F 64.9 °F 50% 29.77 in 10.0 mi South 9.2 mph 16.1 mph N/A   Scattered Clouds
2:31 PM 84.9 °F 86.8 °F 65.3 °F 52% 29.77 in 10.0 mi SSE 13.8 mph 17.3 mph N/A   Mostly Cloudy
2:51 PM 84.0 °F 85.6 °F 64.6 °F 52% 29.77 in 10.0 mi SE 12.7 mph - N/A   Mostly Cloudy
3:12 PM 83.1 °F 84.6 °F 64.4 °F 53% 29.76 in 10.0 mi SSE 10.4 mph - N/A   Mostly Cloudy
3:31 PM 85.5 °F 87.1 °F 64.9 °F 50% 29.76 in 10.0 mi South 6.9 mph - N/A   Scattered Clouds
3:51 PM 84.9 °F 86.3 °F 64.4 °F 50% 29.76 in 10.0 mi SSE 10.4 mph 16.1 mph N/A   Scattered Clouds
4:11 PM 85.3 °F 86.6 °F 64.0 °F 49% 29.75 in 10.0 mi South 9.2 mph - N/A   Scattered Clouds
4:31 PM 86.4 °F 87.6 °F 64.2 °F 47% 29.75 in 7.0 mi South 11.5 mph - N/A   Clear
4:52 PM 85.5 °F 86.8 °F 64.4 °F 49% 29.75 in 10.0 mi South 11.5 mph - N/A   Scattered Clouds
5:11 PM 85.3 °F 86.6 °F 64.2 °F 49% 29.75 in 10.0 mi South 9.2 mph - N/A   Clear
5:31 PM 83.5 °F 84.9 °F 64.2 °F 52% 29.75 in 10.0 mi South 5.8 mph - N/A   Scattered Clouds
5:52 PM 84.9 °F 86.1 °F 63.9 °F 49% 29.74 in 10.0 mi South 11.5 mph - N/A   Scattered Clouds
6:11 PM 84.9 °F 86.6 °F 64.9 °F 51% 29.73 in 10.0 mi South 9.2 mph - N/A   Scattered Clouds
6:31 PM 84.2 °F 86.1 °F 65.3 °F 53% 29.72 in 10.0 mi SSE 11.5 mph - N/A   Clear
6:51 PM 83.7 °F 85.1 °F 64.4 °F 52% 29.71 in 10.0 mi South 11.5 mph - N/A   Clear
7:11 PM 82.4 °F 84.2 °F 65.5 °F 56% 29.71 in 10.0 mi SE 8.1 mph - N/A   Clear
7:31 PM 81.9 °F 83.7 °F 65.5 °F 57% 29.72 in 10.0 mi SE 9.2 mph - N/A   Clear
7:52 PM 81.0 °F 82.9 °F 65.3 °F 59% 29.72 in 7.0 mi SE 10.4 mph - N/A   Clear
8:11 PM 80.1 °F 82.0 °F 65.7 °F 61% 29.70 in 10.0 mi SE 9.2 mph - N/A   Clear
8:31 PM 78.8 °F - 65.7 °F 64% 29.69 in 10.0 mi SE 8.1 mph - N/A   Clear
8:51 PM 78.1 °F - 65.7 °F 65% 29.69 in 10.0 mi SSE 8.1 mph - N/A   Clear
9:11 PM 77.0 °F - 65.7 °F 68% 29.69 in 10.0 mi SSE 8.1 mph - N/A   Clear
9:31 PM 75.4 °F - 65.7 °F 72% 29.69 in 10.0 mi SE 6.9 mph - N/A   Clear
9:51 PM 75.6 °F - 65.8 °F 72% 29.71 in 10.0 mi SSE 6.9 mph - N/A   Clear
10:12 PM 74.5 °F - 66.2 °F 75% 29.71 in 10.0 mi SSE 5.8 mph - N/A   Clear
10:31 PM 74.3 °F - 66.2 °F 76% 29.72 in 10.0 mi SSE 6.9 mph - N/A   Clear
10:51 PM 74.1 °F - 66.2 °F 76% 29.71 in 10.0 mi SSE 6.9 mph - N/A   Clear
11:12 PM 73.6 °F - 66.2 °F 78% 29.70 in 10.0 mi SSE 6.9 mph - N/A   Clear
11:31 PM 73.0 °F - 66.2 °F 79% 29.69 in 10.0 mi SE 5.8 mph - N/A   Clear
11:51 PM 73.2 °F - 66.2 °F 79% 29.70 in 10.0 mi SSE 6.9 mph - N/A   Clear